Regional Weather Roundup
Issued by NWS

Home | Current Version | Previous Version | Text Only | Print | Product List | Glossary On
Versions: 1 2 3 4 5 6 7 8 9 10 11 12 13 14 15 16 17 18 19 20 21 22 23 24 25 26 27 28 29 30 31 32 33 34 35 36 37 38 39 40 41 42 43 44 45 46 47 48 49 50
000
ASUS43 KBIS 020420
RWRND

NORTH DAKOTA REGIONAL WEATHER ROUNDUP
NATIONAL WEATHER SERVICE BISMARCK ND
1100 PM CDT WED OCT 01 2014

NOTE: "FAIR" INDICATES FEW OR NO CLOUDS BELOW 12,000 FEET WITH NO
SIGNIFICANT WEATHER AND/OR OBSTRUCTIONS TO VISIBILITY.


NDZ001>003-009>011-017-020500-
NORTHWEST NORTH DAKOTA

CITY           SKY/WX    TMP DP  RH WIND       PRES   REMARKS
WILLISTON      PTCLDY    48  43  82 W7        29.85S
MINOT          CLOUDY    50  45  83 SW9       29.80R
MINOT AFB      CLOUDY    49  49  99 SW7       29.80R
$$

NDZ018>021-031>035-040>046-020500-
SOUTHWEST NORTH DAKOTA

CITY           SKY/WX    TMP DP  RH WIND       PRES   REMARKS
BISMARCK       CLOUDY    56  47  71 NW7       29.85S
DICKINSON      PTCLDY    45  41  86 W6        29.88S
GARRISON         N/A     48  45  89 W7        29.84R
HETTINGER ARPT PTCLDY    44  40  85 W3        29.93R
$$

NDZ004>008-012>016-024-026-027-054-020500-
NORTHEAST NORTH DAKOTA

CITY           SKY/WX    TMP DP  RH WIND       PRES   REMARKS
GRAND FORKS    CLOUDY    59  51  75 W8        29.74R
GRND FRKS AFB  CLOUDY    59  53  81 W9        29.75R
DEVILS LAKE    CLEAR     52  43  71 W9        29.77R
$$

NDZ022-023-025-028>030-036>039-047>053-020500-
SOUTHEAST NORTH DAKOTA

CITY           SKY/WX    TMP DP  RH WIND       PRES   REMARKS
FARGO          CLOUDY    60  51  72 W9        29.78R
JAMESTOWN      CLEAR     52  47  83 W10       29.82R
$$



USA.gov is the U.S. government's official web portal to all federal, state and local government web resources and services.